Regional Weather Roundup
Issued by NWS Charleston, SC

Current Version | Previous Version | Text Only | Print | Product List | Glossary Off
Versions: 1 2 3 4 5 6 7 8 9 10 11 12 13 14 15 16 17 18 19 20 21 22 23 24 25 26 27 28 29 30 31 32 33 34 35 36 37 38 39 40 41 42 43 44 45 46 47 48 49 50

000
ASUS42 KCHS 310713
RWRCHS

REGIONAL WEATHER ROUNDUP
NATIONAL WEATHER SERVICE CHARLESTON SC
300 AM EDT SUN JUL 31 2016

NOTE: "FAIR" INDICATES FEW OR NO CLOUDS BELOW 12,000 FEET WITH NO
SIGNIFICANT WEATHER AND/OR OBSTRUCTIONS TO VISIBILITY.

NOT ALL STATIONS ARE QUALITY CONTROLLED. USE DATA WITH CAUTION...
ESPECIALLY DEWPOINT OBSERVATIONS.

SCZ027-030-031-034>040-042>050-310800-
...SOUTHEAST SOUTH CAROLINA...

CITY           SKY/WX    TMP DP  RH WIND       PRES   REMARKS
N CHARLESTON   MOCLDY    83  76  79 S6        30.01F HX  91
WATERFRONT PRK   N/A     85  79  82 SW7       29.99F HX  98
MOUNT PLEASANT FAIR      84  79  84 S8        30.02S HX  96
JOHNS ISLAND   FAIR      86  79  79 SW10      30.02S HX  99
PINOPOLIS        N/A     82  75  78 SW6       29.94S
MONCKS CORNER  FAIR      79  73  83 SW6       30.01S
SUMMERVILLE    NOT AVBL
BEAUFORT MCAS  PTCLDY    84  76  76 S5        30.01F HX  93
BEAUFORT ARPT  FAIR      82  77  83 SW5       30.01F HX  91
HILTON HEAD IS PTCLDY    84  79  84 SW7       30.02F HX  96
WALTERBORO     MOSUNNY   79  79 100 S5        30.01F
ALLENDALE      FAIR      79  75  89 CALM      30.00S

...SOUTHERN MIDLANDS AND PEE DEE...

CITY           SKY/WX    TMP DP  RH WIND       PRES   REMARKS
GEORGETOWN     FAIR      79  77  94 SW5       30.02F
KINGSTREE      PTSUNNY   79  70  73 CALM      30.01S
ORANGEBURG     PTCLDY    79  72  79 CALM      30.01F
BARNWELL       NOT AVBL
AIKEN          FAIR      72  68  88 CALM      30.05S
MANNING        FAIR      81  72  74 SW3       30.01F
COLUMBIA       CLEAR     80  70  71 CALM      29.99F
SUMTER         CLEAR     79  72  77 SW5       29.98F
FLORENCE       CLOUDY    78  75  90 SW8       30.00S
MYRTLE BEACH   MOCLDY    84  72  65 SW9       30.02F
N MYRTLE BEACH PTCLDY    84  77  79 SW12      30.00F HX  94

$$

GAZ063-065-086>088-099>101-113>116-118-119-134>141-150-310800-
...SOUTHEAST GEORGIA...

CITY           SKY/WX    TMP DP  RH WIND       PRES   REMARKS
SAVANNAH ARPT  PTCLDY    82  73  74 SW9       30.02F
HUNTER AAF     PTCLDY    82  77  86 SW6       29.99F HX  90
FORT STEWART   PTCLDY    81  72  73 SW2       29.99F
STATESBORO     PTCLDY    79  77  93 CALM      30.01S
SYLVANIA       NOT AVBL
CLAXTON        FAIR      81  74  79 CALM      30.01F

...CSRA...CENTRAL AND FAR SOUTHEAST GEORGIA...

CITY           SKY/WX    TMP DP  RH WIND       PRES   REMARKS
THOMSON        NOT AVBL
AUGUSTA-BUSH   CLOUDY    73  72  96 CALM      30.00F
AUGUSTA-DANIEL CLEAR     76  71  85 CALM      30.03S
SWAINSBORO     FAIR      77  72  83 CALM      30.02F
VIDALIA        MOCLDY    79  72  78 CALM      30.02S
EASTMAN        CLOUDY    78  76  93 CALM      30.05S
HAZLEHURST     FAIR      81  75  83 CALM      30.02S
ALMA           PTCLDY    79  73  82 SW3       30.02F
WAYCROSS       CLEAR     80  78  92 SW3       30.03S
JESUP          FAIR      79  77  94 CALM      30.02F
BAXLEY         FAIR      79  77  94 CALM      30.03R
BRUNSWICK      PTCLDY    81  77  89 SW6       30.04F
SAINT SIMONS   PTCLDY    82  76  81 SW10      30.03S

$$

SCZ027-028-034-036>038-045-046-048>050-GAZ119-141-310800-
...LAKE AND SUPPLEMENTAL COASTAL OBSERVATIONS...

STATION/POSITION TIME  TEMP    WIND        PRES    WAVE   SWELL
                       AIR SEA DIR/SP/G            HT/PER HT/PER/DIR
                 (UTC) (F)     (DEG/KT/KT) (MB)    (FT/S) (FT/S/D)
WINYAH BAY       0545   83     230/  6     1016.0
LAKE MURRAY      0600   83     210/  7/  9 1015.6S
ACE BASIN NERRS  NOT AVBL
FORT PULASKI     0600   84 88  220/  4/  7 1017.2F
SAPELO ISLAND    0600   83     210/ 10     1017.0

$$

ANZ835-935-AMZ111-154-330-350-352-354-370-450-454-472-310800-
...C-MAN AND BUOY OBSERVATIONS...

STATION/POSITION TIME  TEMP    WIND        PRES    WAVE   SWELL
                       AIR SEA DIR/SP/G            HT/PER HT/PER/DIR
                 (UTC) (F)     (DEG/KT/KT) (MB)    (FT/S) (FT/S/D)
BUOY 41004       0650   85 85  210/ 17/ 21 1016.1S   4/ 5
BUOY 41008       0650   85 87  180/ 17/ 21 1016.3F   4/ 5
FOLLY BEACH CMAN 0700   85     210/ 19/ 21 1016.5F
CAPERS NEARSHORE 0608   85 86  230/ 17/ 21 1016.3F
FRIPP NEARSHORE  0608   86 87  220/ 17/ 23 1015.9F


STATION/POSITION TIME  TEMP    WIND        PRES    WAVE   SWELL
                       AIR SEA DIR/SP/G            HT/PER HT/PER/DIR
                 (UTC) (F)     (DEG/KT/KT) (MB)    (FT/S) (FT/S/D)
5E ST. MARYS GA  0601      85                N/A     3/ 4
FRYING PAN BUOY  0600   85 85  200/ 16/ 21 1016.0F
BUOY 41025       0650   85 84  220/ 19/ 23 1014.4F   5/ 4   2/230/ 8
CAPE LOOKOUT NC  0700   84     230/ 12/ 16 1015.2F
BUOY 41002       0650   84 85  200/ 12/ 14 1018.8F   3/ 8   2/110/ 8
BUOY 41010       0620   85 87  150/ 12/ 14 1017.6F
ST AUGUSTINE FL  0700   80 85  200/  7/  9 1017.8F


$$



USA.gov is the U.S. government's official web portal to all federal, state and local government web resources and services.